[[{"header":{"parameterUnit":"m.s-1","parameterCategory":1,"la1":30.2991,"la2":30.254,"lo1":-89.0895,"lo2":-89.0444,"dy":0.0017,"dx":0.0017,"nx":28,"ny":28,"refTime":"2024-07-23T09:00:00:Z","depth":0,"parameterNumber":2,"parameterNumberName":"U-component_of_WINDS"},"data":[0,0,0,0,0,0,0,0,0,0,0,0,0,0,0,0,0,0,0,0,0,0,0,0,0,0,0,0,0,0,0,0,0,0,0,0,0,0,0,0,0,0,0,0,0,0,0,0,0,0,0,0,0,0,0,0,0,0,-0.0587,-0.0586,0,-0.0547,-0.0547,-0.0547,-0.0522,-0.0522,-0.0522,-0.0521,-0.0482,-0.0481,-0.0481,0,0,0,0,0,0,0,0,0,0,0,0,0,-0.0639,-0.0639,-0.0587,-0.0586,-0.0586,-0.0548,-0.0547,-0.0546,-0.0522,-0.0522,-0.0522,-0.0521,-0.0483,-0.0482,-0.0481,0,0,0,0,0,0,0,0,0,0,0,0,0,-0.061,-0.0638,-0.0587,-0.0569,-0.0567,-0.0548,-0.0547,-0.0546,-0.0522,-0.0522,-0.0522,-0.0521,-0.0483,-0.0482,-0.048,-0.0476,0,0,-0.0476,-0.0476,0,0,0,0,0,0,0,0,-0.0612,-0.0608,-0.0572,-0.057,-0.0568,-0.0539,-0.0551,-0.0523,-0.0522,-0.0539,-0.0521,-0.0521,-0.0502,-0.0499,-0.0492,-0.0474,-0.0473,-0.0476,-0.0475,-0.0475,-0.0474,0,0,0,0,0,0,0,-0.0614,-0.061,-0.0571,-0.0571,-0.0569,-0.0562,-0.0558,-0.0546,-0.0522,-0.0538,-0.0536,-0.0531,-0.05,-0.0493,-0.0491,-0.0472,-0.0476,-0.0475,-0.0474,-0.0474,-0.0447,-0.0447,0,0,0,0,0,0,-0.0619,-0.0612,-0.0572,-0.057,-0.059,-0.0562,-0.0557,-0.0549,-0.0522,-0.0518,-0.0531,-0.053,-0.0496,-0.0492,-0.0489,-0.0481,-0.0475,-0.0473,-0.0473,-0.0447,-0.0447,-0.0447,0,0,0,0,0,0,-0.062,-0.0615,-0.0574,-0.059,-0.0584,-0.0561,-0.0552,-0.0548,-0.0541,-0.0517,-0.0513,-0.0529,-0.0495,-0.0491,-0.0479,-0.048,-0.0473,-0.0472,-0.0446,-0.0447,-0.0447,-0.0466,0,0,0,0,0,0,-0.0622,-0.0616,-0.0615,-0.059,-0.0584,-0.0565,-0.0552,-0.0547,-0.0538,-0.0536,-0.0514,-0.051,-0.0495,-0.0481,-0.0478,-0.0478,-0.047,-0.0446,-0.0447,-0.0447,-0.0465,-0.0467,-0.0468,0,0,0,0,0,-0.0623,-0.0622,-0.0615,-0.061,-0.0581,-0.0565,-0.0561,-0.0544,-0.0539,-0.0537,-0.0521,-0.051,-0.048,-0.048,-0.0476,-0.0476,-0.0446,-0.0446,-0.0447,-0.0465,-0.0467,-0.0468,0,0,0,0,0,0,-0.0649,-0.0619,-0.061,-0.0601,-0.0586,-0.0561,-0.0558,-0.0547,-0.0533,-0.0532,-0.0511,-0.0506,-0.0495,-0.0484,-0.0485,-0.0469,-0.0462,-0.0461,-0.0477,-0.0478,-0.048,-0.0483,-0.0469,0,0,0,0,0,-0.0653,-0.0642,-0.0617,-0.0611,-0.0604,-0.0582,-0.0575,-0.0562,-0.0545,-0.0539,-0.0523,-0.0507,-0.0493,-0.0485,-0.0472,-0.0463,-0.0457,-0.046,-0.0462,-0.0463,-0.0463,-0.0456,-0.0457,-0.0448,-0.0448,-0.0448,0,0,-0.0662,-0.0645,-0.0639,-0.0616,-0.0602,-0.0591,-0.0577,-0.0566,-0.0557,-0.0537,-0.0525,-0.0512,-0.0492,-0.0482,-0.0476,-0.0472,-0.0464,-0.0464,-0.0465,-0.0464,-0.0456,-0.0457,-0.0458,-0.0448,-0.0448,-0.0448,0,0,-0.0673,-0.0659,-0.0652,-0.0638,-0.0617,-0.0603,-0.0601,-0.0577,-0.0567,-0.0554,-0.0538,-0.0527,-0.0505,-0.0491,-0.0481,-0.0484,-0.0473,-0.048,-0.0488,-0.0481,-0.0482,-0.0482,-0.0482,-0.0482,-0.048,-0.048,-0.048,0,-0.0688,-0.067,-0.065,-0.0639,-0.0629,-0.0609,-0.0601,-0.0589,-0.0565,-0.0558,-0.0553,-0.0523,-0.0509,-0.0493,-0.0494,-0.0487,-0.0483,-0.0483,-0.0483,-0.0483,-0.0483,-0.0483,-0.0483,-0.0481,-0.0481,-0.048,-0.048,0,-0.0688,-0.0676,-0.0672,-0.0648,-0.0637,-0.0629,-0.0607,-0.0598,-0.0586,-0.0571,-0.0556,-0.0538,-0.0519,-0.0515,-0.0504,-0.0497,-0.0495,-0.0487,-0.0479,-0.0486,-0.0485,-0.0485,-0.0482,-0.0482,-0.0481,-0.0481,0,0,-0.0716,-0.0679,-0.0678,-0.0666,-0.064,-0.063,-0.0619,-0.06,-0.0592,-0.0576,-0.0565,-0.0546,-0.0537,-0.0526,-0.0513,-0.0506,-0.0508,-0.0499,-0.0498,-0.0501,-0.0498,-0.0504,-0.0504,-0.05,-0.05,-0.05,-0.0499,0,-0.0723,-0.0702,-0.0683,-0.0669,-0.0656,-0.0635,-0.0626,-0.0608,-0.0594,-0.058,-0.0564,-0.055,-0.0541,-0.0533,-0.0526,-0.0509,-0.0507,-0.0509,-0.049,-0.0489,-0.0495,-0.0504,-0.0511,-0.0512,-0.0499,-0.0499,-0.0499,0,-0.0729,-0.0711,-0.0696,-0.0669,-0.0663,-0.0655,-0.0634,-0.0622,-0.0601,-0.0591,-0.0577,-0.0562,-0.0548,-0.0542,-0.0522,-0.0523,-0.0514,-0.0504,-0.0504,-0.0501,-0.0495,-0.0502,-0.0512,-0.0512,-0.0498,-0.0498,-0.0498,0,-0.0749,-0.0723,-0.0709,-0.07,-0.0668,-0.0662,-0.0649,-0.0628,-0.0617,-0.0599,-0.0591,-0.0572,-0.0562,-0.0547,-0.0527,-0.0524,-0.0509,-0.0501,-0.0499,-0.05,-0.0498,-0.0498,-0.0506,-0.0492,-0.0492,-0.0492,-0.0492,0,-0.0759,-0.0751,-0.0718,-0.071,-0.0699,-0.0676,-0.0665,-0.065,-0.0631,-0.0619,-0.0599,-0.0588,-0.0562,-0.0548,-0.0532,-0.0517,-0.0513,-0.0504,-0.05,-0.0505,-0.0507,-0.0499,-0.0499,-0.0492,-0.0492,-0.0492,-0.0492,0,-0.0781,-0.0759,-0.0743,-0.0714,-0.0706,-0.0699,-0.0673,-0.0664,-0.0647,-0.0632,-0.0627,-0.0601,-0.0583,-0.0561,-0.0536,-0.0525,-0.0511,-0.0505,-0.0518,-0.0516,-0.0515,-0.0516,-0.0519,-0.0518,-0.0505,-0.0505,-0.0505,0,-0.0789,-0.0782,-0.0751,-0.0741,-0.0728,-0.0712,-0.07,-0.0676,-0.0665,-0.0639,-0.0632,-0.0612,-0.0595,-0.0567,-0.0545,-0.0525,-0.0518,-0.0521,-0.0515,-0.0521,-0.0518,-0.0518,-0.0517,-0.0523,-0.0523,-0.0523,-0.0523,0,-0.0805,-0.0794,-0.0778,-0.0756,-0.0742,-0.0725,-0.0706,-0.0699,-0.0671,-0.0659,-0.0639,-0.0626,-0.0599,-0.0579,-0.0556,-0.0541,-0.0527,-0.0525,-0.0523,-0.0529,-0.0537,-0.0532,-0.0522,-0.0525,-0.0525,-0.0525,-0.0525,-0.0525,-0.082,-0.0812,-0.0788,-0.0769,-0.0752,-0.0735,-0.0724,-0.0705,-0.0688,-0.0664,-0.0651,-0.0631,-0.0608,-0.0575,-0.0561,-0.0545,-0.054,-0.0538,-0.0538,-0.0538,-0.0539,-0.0539,-0.0541,-0.054,-0.054,-0.054,-0.054,0,-0.0835,-0.0818,-0.0801,-0.0775,-0.0759,-0.0746,-0.0724,-0.0713,-0.0696,-0.0675,-0.0657,-0.0634,-0.0614,-0.0589,-0.0567,-0.0559,-0.0552,-0.0554,-0.0554,-0.0551,-0.0545,-0.0548,-0.056,-0.056,-0.056,-0.056,-0.056,-0.056,-0.0841,-0.0825,-0.081,-0.0785,-0.0768,-0.0748,-0.0737,-0.072,-0.0703,-0.0677,-0.066,-0.0644,-0.0621,-0.0597,-0.0577,-0.057,-0.0563,-0.0567,-0.0558,-0.0553,-0.0552,-0.055,-0.0553,-0.0565,-0.0565,-0.0565,-0.0565,-0.0565]},{"header":{"parameterUnit":"m.s-1","parameterCategory":1,"la1":30.2991,"la2":30.254,"lo1":-89.0895,"lo2":-89.0444,"dy":0.0017,"dx":0.0017,"nx":28,"ny":28,"refTime":"2024-07-23T09:00:00:Z","depth":0,"parameterNumber":3,"parameterNumberName":"V-component_of_WINDS"},"data":[0,0,0,0,0,0,0,0,0,0,0,0,0,0,0,0,0,0,0,0,0,0,0,0,0,0,0,0,0,0,0,0,0,0,0,0,0,0,0,0,0,0,0,0,0,0,0,0,0,0,0,0,0,0,0,0,0,0,-1.8145,-1.8145,0,-1.8199,-1.82,-1.8201,-1.8202,-1.8201,-1.82,-1.82,-1.8251,-1.8253,-1.8255,0,0,0,0,0,0,0,0,0,0,0,0,0,-1.8036,-1.8038,-1.8145,-1.8145,-1.8146,-1.8199,-1.82,-1.8201,-1.8202,-1.8201,-1.82,-1.8199,-1.825,-1.8253,-1.8255,0,0,0,0,0,0,0,0,0,0,0,0,0,-1.8086,-1.8039,-1.8144,-1.8153,-1.8154,-1.8199,-1.82,-1.8201,-1.8202,-1.8201,-1.82,-1.8199,-1.825,-1.8253,-1.8256,-1.8294,0,0,-1.8265,-1.8266,0,0,0,0,0,0,0,0,-1.8083,-1.809,-1.8151,-1.8153,-1.8154,-1.8193,-1.8181,-1.8232,-1.8202,-1.8184,-1.82,-1.8199,-1.8232,-1.8237,-1.8249,-1.8296,-1.8299,-1.8265,-1.8267,-1.8268,-1.8269,0,0,0,0,0,0,0,-1.808,-1.8088,-1.8166,-1.8152,-1.8154,-1.8153,-1.8159,-1.819,-1.8213,-1.8185,-1.8186,-1.8192,-1.8233,-1.8246,-1.825,-1.8299,-1.8265,-1.8267,-1.8269,-1.827,-1.838,-1.8381,0,0,0,0,0,0,-1.8075,-1.8085,-1.8164,-1.8168,-1.8116,-1.8155,-1.8162,-1.8181,-1.8212,-1.8216,-1.8193,-1.8192,-1.8241,-1.8247,-1.8252,-1.8298,-1.8268,-1.8271,-1.8272,-1.8379,-1.838,-1.8382,0,0,0,0,0,0,-1.8073,-1.8082,-1.8162,-1.8126,-1.8137,-1.8158,-1.818,-1.8183,-1.8196,-1.8218,-1.8222,-1.8203,-1.8241,-1.8248,-1.8284,-1.83,-1.8272,-1.8275,-1.8378,-1.8379,-1.8381,-1.8392,0,0,0,0,0,0,-1.807,-1.8082,-1.8098,-1.8127,-1.8138,-1.8194,-1.8181,-1.8185,-1.8202,-1.8201,-1.8228,-1.8232,-1.8241,-1.8279,-1.8287,-1.8304,-1.8277,-1.8376,-1.8378,-1.838,-1.839,-1.8394,-1.8397,0,0,0,0,0,-1.8066,-1.8097,-1.8098,-1.8108,-1.8159,-1.8195,-1.8202,-1.8212,-1.8203,-1.8219,-1.8233,-1.8231,-1.8297,-1.8283,-1.8291,-1.8309,-1.8375,-1.8378,-1.838,-1.8389,-1.8393,-1.8397,0,0,0,0,0,0,-1.8068,-1.8101,-1.8103,-1.8145,-1.8168,-1.8196,-1.8215,-1.8217,-1.8241,-1.8239,-1.825,-1.8256,-1.8292,-1.8304,-1.8288,-1.8348,-1.8335,-1.8339,-1.8338,-1.8343,-1.8346,-1.8342,-1.828,0,0,0,0,0,-1.8073,-1.8102,-1.8129,-1.8163,-1.8175,-1.8193,-1.8209,-1.8216,-1.8239,-1.8248,-1.8265,-1.8286,-1.8311,-1.8328,-1.8353,-1.8392,-1.8397,-1.8409,-1.8412,-1.8415,-1.8418,-1.8439,-1.8444,-1.839,-1.839,-1.839,0,0,-1.8084,-1.8106,-1.8123,-1.8164,-1.8183,-1.821,-1.8201,-1.8231,-1.8251,-1.8252,-1.8287,-1.83,-1.8324,-1.8362,-1.838,-1.8374,-1.8435,-1.8418,-1.842,-1.8422,-1.8442,-1.8447,-1.8452,-1.8392,-1.8391,-1.8391,0,0,-1.8119,-1.8139,-1.817,-1.8189,-1.8217,-1.8229,-1.8236,-1.8264,-1.8274,-1.831,-1.8311,-1.8334,-1.8378,-1.8395,-1.841,-1.8451,-1.845,-1.8459,-1.8476,-1.8496,-1.85,-1.8504,-1.8518,-1.8523,-1.8462,-1.8462,-1.8462,0,-1.8129,-1.8172,-1.8185,-1.8215,-1.8232,-1.8237,-1.8267,-1.8284,-1.8318,-1.8329,-1.8323,-1.8378,-1.8395,-1.8436,-1.8446,-1.8458,-1.8466,-1.8455,-1.8499,-1.8503,-1.8507,-1.852,-1.8525,-1.8463,-1.8463,-1.8463,-1.8463,0,-1.8182,-1.8212,-1.8233,-1.8268,-1.8288,-1.8318,-1.8334,-1.8352,-1.8357,-1.8369,-1.8405,-1.8425,-1.8454,-1.8464,-1.8469,-1.8506,-1.8502,-1.8497,-1.8484,-1.8513,-1.8525,-1.853,-1.8464,-1.8464,-1.8464,-1.8463,0,0,-1.8218,-1.8261,-1.8268,-1.8284,-1.8315,-1.8338,-1.8367,-1.8397,-1.8412,-1.8436,-1.846,-1.8497,-1.8493,-1.851,-1.8516,-1.8534,-1.8564,-1.8527,-1.8527,-1.8532,-1.8606,-1.8609,-1.8614,-1.8564,-1.8565,-1.8566,-1.8603,0,-1.8255,-1.831,-1.8322,-1.8369,-1.8396,-1.84,-1.8426,-1.8447,-1.8459,-1.8483,-1.8496,-1.8522,-1.8515,-1.8525,-1.8543,-1.8557,-1.8579,-1.8554,-1.8585,-1.8586,-1.8578,-1.8621,-1.8624,-1.8659,-1.8608,-1.8609,-1.861,0,-1.8306,-1.8332,-1.8381,-1.841,-1.8421,-1.8444,-1.8473,-1.8496,-1.8519,-1.8527,-1.8546,-1.855,-1.858,-1.8566,-1.8606,-1.8589,-1.8602,-1.8611,-1.8612,-1.8615,-1.8599,-1.8624,-1.867,-1.8675,-1.8618,-1.8617,-1.8617,0,-1.8326,-1.8374,-1.8409,-1.8423,-1.8457,-1.8473,-1.8487,-1.851,-1.8527,-1.8552,-1.8562,-1.8589,-1.8603,-1.8623,-1.8634,-1.8623,-1.8673,-1.866,-1.8679,-1.8678,-1.8688,-1.8687,-1.8736,-1.8698,-1.8698,-1.8698,-1.8698,0,-1.8366,-1.8395,-1.8419,-1.8441,-1.8474,-1.8488,-1.8519,-1.8534,-1.8554,-1.8578,-1.8583,-1.8604,-1.8618,-1.8641,-1.865,-1.8681,-1.8687,-1.8693,-1.8695,-1.8692,-1.8692,-1.87,-1.8698,-1.8699,-1.8699,-1.8699,-1.8699,0,-1.8393,-1.8411,-1.845,-1.8479,-1.8488,-1.851,-1.8535,-1.8555,-1.8568,-1.8598,-1.8605,-1.8625,-1.8652,-1.8665,-1.8699,-1.8705,-1.874,-1.874,-1.8732,-1.8733,-1.875,-1.8748,-1.8805,-1.8813,-1.8771,-1.8771,-1.8772,0,-1.8417,-1.844,-1.8473,-1.849,-1.8505,-1.8532,-1.855,-1.8564,-1.8582,-1.8612,-1.8628,-1.8656,-1.8679,-1.8723,-1.8739,-1.8764,-1.8765,-1.8784,-1.8769,-1.8765,-1.8764,-1.8762,-1.8764,-1.8786,-1.8786,-1.8786,-1.8787,0,-1.8457,-1.8465,-1.8491,-1.8521,-1.8542,-1.8566,-1.8589,-1.8602,-1.8619,-1.8639,-1.8668,-1.8686,-1.8721,-1.8749,-1.8776,-1.8789,-1.879,-1.8792,-1.8797,-1.8794,-1.8788,-1.879,-1.8738,-1.879,-1.8789,-1.8789,-1.8789,-1.8789,-1.8483,-1.8504,-1.853,-1.8559,-1.8578,-1.86,-1.8621,-1.8637,-1.8662,-1.8692,-1.8699,-1.8729,-1.8752,-1.8788,-1.8803,-1.8825,-1.8821,-1.8829,-1.8831,-1.8832,-1.8833,-1.8785,-1.883,-1.883,-1.883,-1.883,-1.883,0,-1.8522,-1.854,-1.8567,-1.86,-1.8622,-1.8624,-1.8649,-1.8667,-1.8695,-1.8717,-1.874,-1.8773,-1.8799,-1.8818,-1.8845,-1.8859,-1.886,-1.8866,-1.8864,-1.8867,-1.8836,-1.8828,-1.8864,-1.8864,-1.8864,-1.8864,-1.8864,-1.8864,-1.8546,-1.8581,-1.8591,-1.8635,-1.8652,-1.8684,-1.8698,-1.8717,-1.8735,-1.8772,-1.8795,-1.8807,-1.8827,-1.8856,-1.8879,-1.8884,-1.8893,-1.8898,-1.8902,-1.8873,-1.8869,-1.8866,-1.8858,-1.89,-1.89,-1.8932,-1.8932,-1.8932]}]]